Sisseton, SD

12:49 PM CDT on October 23, 2017 (GMT -0500)
Sisseton

Weather History for K8D3 - December, 2014

Change the Weather History Date:

Tuesday, December 9, 2014

  Actual Average Record
Temperature  
Mean Temperature 20 °F 19 °F  
Max Temperature 26 °F 28 °F 64 °F (2006)
Min Temperature 14 °F 10 °F -22 °F (1955)
Degree Days  
Heating Degree Days 45 46  
Month to date heating degree days 403 401  
Since 1 July heating degree days 2383 2252  
Cooling Degree Days 0 0  
Month to date cooling degree days 0 0  
Year to date cooling degree days 442 527  
Moisture  
Dew Point 18 °F    
Average Humidity 91    
Maximum Humidity 100    
Minimum Humidity 81    
Precipitation  
Precipitation 0.00 in 0.01 in 0.42 in (1961)
Month to date precipitation 0.00 0.15  
Year to date precipitation 23.10 22.09  
Snow  
Snow 0.00 in - - ()
Month to date snowfall 0.0  
Since 1 July snowfall 8.4  
Snow Depth T in    
Sea Level Pressure  
Sea Level Pressure 30.45 in    
Wind  
Wind Speed 10 mph (SSE)    
Max Wind Speed 21 mph    
Max Gust Speed 25 mph    
T = Trace of Precipitation, MM = Missing Value Source: NWS Daily Summary

Daily Weather History Graph

Daily Weather History Graph

Search for Another Location

Airport or City:

Trip Planner

Search our weather history database for the weather conditions in past years. The results will help you decide how hot, cold, wet, or windy it might be!

Date:

Astronomy

Dec. 09, 2014 Rise Set
Actual Time 7:56 AM CST 4:43 PM CST
Civil Twilight 7:22 AM CST 5:17 PM CST
Nautical Twilight 6:45 AM CST 5:55 PM CST
Astronomical Twilight 6:09 AM CST 6:31 PM CST
Moon 8:10 PM CST (12/9) 10:05 AM CST (12/9)
Length of Visible Light 9h 55m
Length of Day
8h 47m
Waning Gibbous, 90% of the Moon is Illuminated
Dec 9
Waning Gibbous
Dec 14
Last Quarter
Dec 21
New
Dec 28
First Quarter
Jan 4
Full

Hourly Weather History & Observations

Time (CST) Temp. Windchill Dew Point Humidity Pressure Visibility Wind Dir Wind Speed Gust Speed Precip Events Conditions
12:56 AM 17.1 °F 5.8 °F 15.1 °F 92% 30.51 in - NNE 9.2 mph - N/A   Unknown
1:56 AM 16.0 °F 6.3 °F 14.0 °F 92% 30.52 in - NNE 6.9 mph - N/A   Unknown
2:56 AM 15.1 °F 3.3 °F 14.0 °F 95% 30.53 in - NNE 9.2 mph - N/A   Unknown
3:56 AM 15.1 °F 6.4 °F 14.0 °F 95% 30.54 in - North 5.8 mph - N/A   Unknown
4:56 AM 15.1 °F 9.4 °F 14.0 °F 95% 30.52 in - ENE 3.5 mph - N/A   Unknown
5:56 AM 15.1 °F - 12.9 °F 91% 30.55 in - Calm Calm - N/A   Unknown
6:56 AM 15.1 °F 7.7 °F 14.0 °F 95% 30.52 in - SE 4.6 mph - N/A   Unknown
7:56 AM 15.1 °F 4.2 °F 15.1 °F 100% 30.51 in - SSE 8.1 mph - N/A   Unknown
8:56 AM 16.0 °F 6.3 °F 15.1 °F 96% 30.52 in - South 6.9 mph - N/A   Unknown
9:56 AM 17.1 °F 6.6 °F 16.0 °F 96% 30.53 in - South 8.1 mph - N/A   Unknown
10:56 AM 18.0 °F 7.7 °F 17.1 °F 96% 30.53 in - South 8.1 mph - N/A   Unknown
11:56 AM 19.9 °F 7.3 °F 18.0 °F 92% 30.49 in - South 12.7 mph - N/A   Unknown
12:56 PM 21.9 °F 10.4 °F 19.0 °F 89% 30.46 in - South 11.5 mph - N/A   Unknown
1:56 PM 24.1 °F 14.4 °F 19.9 °F 84% 30.43 in - South 9.2 mph - N/A   Unknown
2:56 PM 25.0 °F 14.2 °F 19.9 °F 81% 30.42 in - South 11.5 mph - N/A   Unknown
3:56 PM 25.0 °F 13.1 °F 21.0 °F 85% 30.40 in - South 13.8 mph - N/A   Unknown
4:56 PM 25.0 °F 13.1 °F 21.9 °F 88% 30.38 in - South 13.8 mph - N/A   Unknown
5:56 PM 24.1 °F 14.4 °F 23.0 °F 96% 30.37 in - SSE 9.2 mph - N/A   Unknown
6:56 PM 24.1 °F 13.7 °F 23.0 °F 96% 30.37 in - SSE 10.4 mph - N/A   Unknown
7:56 PM 25.0 °F 14.2 °F 23.0 °F 92% 30.37 in - SSE 11.5 mph - N/A   Unknown
8:56 PM 25.0 °F 13.1 °F 23.0 °F 92% 30.34 in - South 13.8 mph - N/A   Unknown
9:56 PM 25.0 °F 12.6 °F 23.0 °F 92% 30.35 in - SSE 15.0 mph - N/A   Unknown
10:56 PM 25.0 °F 13.1 °F 23.0 °F 92% 30.36 in - SSE 13.8 mph - N/A   Unknown
11:56 PM 25.0 °F 12.6 °F 23.0 °F 92% 30.35 in - SSE 15.0 mph - N/A   Unknown